Zurück zum Katalog

METEOR 1-17 DEB

LostPO
NORAD 57544·DEBRIS·🇷🇺 Russia

Gestartet Apr 24, 1974 von Plesetsk Cosmodrome

Loading…

Nächste Überflüge (nächste 24 Stunden)

TLE

VeraltetSource: Space-Track

Epoche: Aug 5, 2024, 07:52 UTC

1 57544U 74025K   24218.32795280  .00008607  00000-0  45683-2 0  9995
2 57544  81.2107 239.7073 0011215  97.6579 262.5867 14.13438262 61074

Verfolge METEOR 1-17 DEB in Echtzeit mit AllMySat

Download on the App Store